TimeMST,TemperatureF,Dew PointF,Humidity,Sea Level PressureIn,VisibilityMPH,Wind Direction,Wind SpeedMPH,Gust SpeedMPH,PrecipitationIn,Events,Conditions,WindDirDegrees,DateUTC
12:53 AM,12.9,6.1,74,30.27,10.0,NW,20.7,-,N/A,,Overcast,310,2013-01-02 07:53:00
1:53 AM,14.0,5.0,67,30.25,10.0,NW,13.8,-,N/A,,Overcast,310,2013-01-02 08:53:00
2:53 AM,10.9,3.9,73,30.26,10.0,NW,13.8,-,N/A,,Mostly Cloudy,310,2013-01-02 09:53:00
3:53 AM,10.9,5.0,77,30.27,10.0,NW,18.4,-,N/A,,Mostly Cloudy,310,2013-01-02 10:53:00
5:53 AM,10.9,3.0,70,30.32,10.0,North,5.8,-,N/A,,Overcast,350,2013-01-02 12:53:00
6:53 AM,10.0,1.9,70,30.35,10.0,WNW,10.4,-,N/A,,Mostly Cloudy,300,2013-01-02 13:53:00
7:53 AM,10.0,1.9,70,30.34,10.0,West,11.5,-,N/A,,Overcast,280,2013-01-02 14:53:00
8:53 AM,10.0,3.0,73,30.35,10.0,NNW,3.5,-,N/A,,Overcast,340,2013-01-02 15:53:00
9:53 AM,12.9,3.9,67,30.35,10.0,WNW,9.2,-,N/A,,Overcast,300,2013-01-02 16:53:00
10:53 AM,16.0,7.0,68,30.33,10.0,WNW,17.3,-,N/A,,Overcast,300,2013-01-02 17:53:00
11:53 AM,16.0,7.0,68,30.28,10.0,WNW,18.4,-,N/A,,Overcast,300,2013-01-02 18:53:00
12:53 PM,16.0,6.1,65,30.25,10.0,NW,18.4,-,N/A,,Clear,320,2013-01-02 19:53:00
1:53 PM,16.0,7.0,68,30.25,10.0,NW,12.7,-,N/A,,Clear,310,2013-01-02 20:53:00
2:53 PM,16.0,3.0,57,30.27,10.0,WNW,19.6,-,N/A,,Clear,300,2013-01-02 21:53:00
4:53 PM,10.0,-0.0,64,30.34,10.0,WNW,17.3,-,N/A,,Scattered Clouds,300,2013-01-02 23:53:00
5:53 PM,9.0,1.0,70,30.35,10.0,West,9.2,-,N/A,,Overcast,270,2013-01-03 00:53:00
6:53 PM,7.0,-2.9,64,30.38,10.0,WNW,9.2,-,N/A,,Scattered Clouds,300,2013-01-03 01:53:00
7:53 PM,8.1,-2.0,64,30.39,10.0,NW,13.8,-,N/A,,Overcast,310,2013-01-03 02:53:00
8:53 PM,6.1,-2.9,67,30.41,10.0,NW,6.9,-,N/A,,Overcast,320,2013-01-03 03:53:00
9:53 PM,5.0,-5.1,63,30.42,10.0,West,3.5,-,N/A,,Overcast,270,2013-01-03 04:53:00
10:53 PM,3.0,-6.0,66,30.43,10.0,WNW,8.1,-,N/A,,Mostly Cloudy,290,2013-01-03 05:53:00
11:53 PM,-0.0,-9.0,66,30.45,10.0,SW,3.5,-,N/A,,Clear,230,2013-01-03 06:53:00